Location: Godiavel Galaoual
(15.2485°N, 12.6604°W)
Time: 12:22:34
(UTC+00:00)

Hubble Space Telescope - Visible Passes

Search period start: 28 November 2022 00:00
Search period end: 08 December 2022 00:00
Orbit: 530 x 534 km, 28.5° (Epoch: 27 November)

Date Brightness Start Highest point End Pass type
(mag) Time Alt. Az. Time Alt. Az. Time Alt. Az.
28 Nov 3.7 18:54:35 10° WSW 18:56:22 13° SSW 18:58:10 10° S visible
01 Dec 2.9 06:25:44 10° SSW 06:29:11 26° SSE 06:32:39 10° E visible
02 Dec 2.3 06:12:47 10° SW 06:16:32 35° SSE 06:20:17 10° E visible
03 Dec 1.7 05:59:58 10° SW 06:03:53 47° SSE 06:07:50 10° ENE visible
04 Dec 1.0 05:48:30 19° SW 05:51:15 65° SSE 05:55:18 10° ENE visible
05 Dec 0.6 05:37:34 49° WSW 05:38:37 87° SSE 05:42:42 10° ENE visible
06 Dec 0.9 05:26:28 63° NNE 05:26:28 63° NNE 05:30:03 10° ENE visible
07 Dec 2.2 05:15:11 29° NE 05:15:11 29° NE 05:17:22 10° NE visible
